Weather in Grigorovo

Russia / Kostroma Oblast     58°10′11″N   41°29′20″E
temp.,
°C
wind,
m/s
gust,
m/s
humid.,
%
clouds,
%
prec.,
mm/h
press.,
hPa
HPBL,
m
17 may, mon
mon1700:00+12wsw38950 0.0 1013168
03:00+11wsw23970 0.0 101560
06:00+13sw129137 0.0 101686
09:00+18sw117354 0.0 1016434
12:00+23ssw12539 0.0 10171280
15:00+24sse12475 0.0 10161660
18:00+23e2364100 0.0 1015124
21:00+17ese378390 0.0 1015124
18 may, tue
tue1800:00+15ese41391100 0.9 1015269
03:00+15ese41394100 2.4 1015293
06:00+16ese4119499 0.0 1015315
09:00+22se477358 0.0 1015457
12:00+26se5952100 0.0 1015948
15:00+26se585427 0.0 10141174
18:00+24se410656 0.0 1013741
21:00+19ese3128428 0.0 1014266
19 may, wed
wed1900:00+18ese516855 0.0 1014453
03:00+17se514920 0.0 1014392
06:00+18se514850 0.0 1014453
09:00+23se611646 0.0 1014556
12:00+27se610473 0.0 10131208
15:00+27se59455 0.0 10122416
18:00+25se511570 0.0 10121404
21:00+20ese514700 0.0 1012673
20 may, thu
thu2000:00+18se617745 0.0 1011585
03:00+17se516750 0.0 1011504
06:00+17se513770 0.0 1012472
09:00+22se57610 0.0 1011704
12:00+25se69510 0.0 10101373
15:00+26se611480 0.0 10102374
18:00+22sse61364100 0.3 10091410
21:00+18se6137669 0.6 10081049
21 may, fri
fri2100:00+14sse6148396 0.2 1008973
03:00+12sse4129342 0.2 1009498
06:00+13sse61287100 0.0 1008679
09:00+14sse61183100 0.2 10081032
12:00+12ssw6128899 0.8 10091093
15:00+11ssw61284100 1.1 10101296
18:00+10ssw61188100 0.3 10111032
21:00+11sw51087100 0.3 1013831